Location: Perugia
(43.1330°N, 12.3670°E)
Time: 09:23:16
(UTC+01:00)

ISS - Visible Passes

Search period start: 05 December 2022 00:00
Search period end: 15 December 2022 00:00
Orbit: 414 x 420 km, 51.6° (Epoch: 05 December)

Date Brightness Start Highest point End Pass type
(mag) Time Alt. Az. Time Alt. Az. Time Alt. Az.
05 Dec -3.7 17:53:26 10° WNW 17:56:47 80° SW 17:59:23 16° SE visible
06 Dec -3.8 17:05:17 10° NW 17:08:36 64° NNE 17:11:56 10° ESE visible
06 Dec -1.0 18:42:46 10° W 18:45:04 17° SW 18:47:21 10° S visible
07 Dec -1.7 17:54:06 10° WNW 17:57:02 29° SW 17:59:57 10° SSE visible
08 Dec -2.7 17:05:41 10° WNW 17:08:56 49° SW 17:12:10 10° SE visible
09 Dec -0.2 17:56:07 10° WSW 17:57:00 11° SW 17:57:52 10° SW visible
10 Dec -0.6 17:06:34 10° W 17:08:57 18° SW 17:11:20 10° S visible
